Weather History for Gillette, WY

Change the Weather History Date:

Friday, January 18, 2013

  Actual Average Record
Temperature  
Mean Temperature 40 °F 26 °F  
Max Temperature 49 °F 38 °F - ()
Min Temperature 31 °F 15 °F - ()
Degree Days  
Heating Degree Days 25 39  
Month to date heating degree days 745 707  
Since 1 July heating degree days 3585 3848  
Cooling Degree Days 0 0  
Month to date cooling degree days 0 0  
Year to date cooling degree days 0 0  
Moisture  
Dew Point 20 °F    
Average Humidity 45    
Maximum Humidity 52    
Minimum Humidity 37    
Precipitation  
Precipitation 0.00 in 0.01 in - ()
Month to date precipitation 0.15 0.18  
Year to date precipitation 0.15 0.18  
Sea Level Pressure  
Sea Level Pressure 29.99 in    
Wind  
Wind Speed 14 mph (WSW)    
Max Wind Speed 26 mph    
Max Gust Speed 30 mph    
Visibility 10 miles    
Events      
T = Trace of Precipitation, MM = Missing Value Source: NWS Daily Summary

Daily Weather History Graph

Daily Weather History Graph

Search for Another Location

Airport:

Trip Planner

Search our weather history database for the weather conditions in past years. The results will help you decide how hot, cold, wet, or windy it might be!

Date:

Astronomy

Jan. 18, 2013 Rise Set
Actual Time 7:32 AM MST 4:53 PM MST
Civil Twilight 7:00 AM MST 5:25 PM MST
Nautical Twilight 6:25 AM MST 6:00 PM MST
Astronomical Twilight 5:50 AM MST 6:35 PM MST
Moon 10:53 AM MST (1/18) 12:04 AM MST (1/18)
Length of Visible Light 10h 24m
Length of Day
9h 20m
Waxing Crescent, 48% of the Moon is Illuminated
Jan 18
Waxing Crescent
Jan 18
First Quarter
Jan 26
Full
Feb 3
Last Quarter
Feb 10
New

Hourly Weather History & Observations

Time (MST) Temp. Windchill Dew Point Humidity Pressure Visibility Wind Dir Wind Speed Gust Speed Precip Events Conditions
12:53 AM 35.1 °F 23.8 °F 16.0 °F 46% 30.06 in 10.0 mi SW 20.7 mph - N/A   Clear
1:53 AM 34.0 °F 21.3 °F 16.0 °F 48% 30.05 in 10.0 mi SW 25.3 mph - N/A   Clear
2:53 AM 33.1 °F 21.9 °F 16.0 °F 50% 30.05 in 10.0 mi WSW 18.4 mph - N/A   Clear
3:53 AM 32.0 °F 21.6 °F 16.0 °F 52% 30.04 in 10.0 mi WSW 15.0 mph - N/A   Clear
4:53 AM 33.1 °F 21.9 °F 15.1 °F 48% 30.03 in 10.0 mi SW 18.4 mph - N/A   Clear
5:53 AM 33.1 °F 21.2 °F 15.1 °F 48% 30.02 in 10.0 mi SW 20.7 mph - N/A   Clear
6:53 AM 33.1 °F 21.2 °F 15.1 °F 48% 30.03 in 10.0 mi SW 20.7 mph - N/A   Clear
7:53 AM 33.1 °F 23.0 °F 15.1 °F 48% 30.04 in 10.0 mi SW 15.0 mph - N/A   Clear
8:53 AM 37.0 °F 27.0 °F 16.0 °F 42% 30.04 in 10.0 mi SW 18.4 mph - N/A   Clear
9:53 AM 41.0 °F 32.8 °F 18.0 °F 40% 30.03 in 10.0 mi SW 16.1 mph - N/A   Clear
10:53 AM 42.1 °F 33.3 °F 19.9 °F 41% 30.01 in 10.0 mi SW 19.6 mph - N/A   Clear
11:53 AM 43.0 °F 35.1 °F 21.9 °F 43% 29.98 in 10.0 mi SW 17.3 mph - N/A   Clear
12:53 PM 46.0 °F 40.6 °F 21.9 °F 39% 29.95 in 10.0 mi SW 11.5 mph - N/A   Clear
1:53 PM 46.9 °F - 23.0 °F 39% 29.94 in 10.0 mi SW 13.8 mph - N/A   Clear
2:53 PM 45.0 °F 40.1 °F 25.0 °F 46% 29.93 in 10.0 mi SW 9.2 mph - N/A   Clear
3:53 PM 44.1 °F 39.0 °F 26.1 °F 49% 29.93 in 10.0 mi SW 9.2 mph - N/A   Clear
4:53 PM 39.9 °F 33.9 °F 23.0 °F 51% 29.94 in 10.0 mi WSW 9.2 mph - N/A   Partly Cloudy
5:53 PM 39.0 °F 33.4 °F 23.0 °F 53% 29.95 in 10.0 mi West 8.1 mph - N/A   Mostly Cloudy
6:53 PM 37.9 °F 30.9 °F 21.0 °F 51% 29.95 in 10.0 mi West 10.4 mph - N/A   Clear
7:53 PM 37.0 °F 29.8 °F 21.9 °F 54% 29.97 in 10.0 mi West 10.4 mph - N/A   Mostly Cloudy
8:53 PM 37.9 °F 32.1 °F 21.9 °F 53% 29.96 in 10.0 mi West 8.1 mph - N/A   Overcast
9:53 PM 39.0 °F 31.8 °F 21.0 °F 49% 29.96 in 10.0 mi WSW 11.5 mph - N/A   Overcast
10:53 PM 41.0 °F 36.4 °F 19.9 °F 43% 29.96 in 10.0 mi WNW 6.9 mph - N/A   Overcast
11:53 PM 37.0 °F 31.0 °F 21.0 °F 52% 29.99 in 10.0 mi West 8.1 mph - N/A   Overcast